Overview Statistics Trail Chart Weather Telemetry Raw packets
 

This is the latest recevied weather packets stored in our database for station/object KI5UTS-13. If no packets are shown the sender has not sent any weather packets the latest 10 day(s).

<< 24 25 26 27 28 29 30 >>
Time Temp. Humidity Pressure Rain* Wind** Luminosity Snow
1788383502 31.11° C 78% 1017 hPa 0 mm - 152 W/m² -
1788383202 30.56° C 78% 1017.3 hPa 0 mm - 138 W/m² -
1788382897 30.56° C 78% 1017.2 hPa 0 mm - 131 W/m² -
1788382595 30.56° C 78% 1017.2 hPa 0 mm - 131 W/m² -
1788382291 30.56° C 79% 1017.2 hPa 0 mm - 133 W/m² -
1788381986 30.56° C 79% 1017.4 hPa 0 mm - 131 W/m² -
1788381681 30.56° C 78% 1017.4 hPa 0 mm - 121 W/m² -
1788381376 30° C 79% 1017.5 hPa 0 mm - 122 W/m² -
1788381075 30.56° C 78% 1017.5 hPa 0 mm - 111 W/m² -
1788380771 30° C 79% 1017.8 hPa 0 mm - 92 W/m² -
1788380468 30.56° C 78% 1017.7 hPa 0 mm - 89 W/m² -
1788380163 30.56° C 78% 1017.9 hPa 0 mm - 88 W/m² -
1788379862 32.22° C 73% 1018 hPa 0 mm - 100 W/m² -
1788379557 32.22° C 71% 1017.7 hPa 0 mm - 116 W/m² -
1788379254 32.78° C 70% 1017.6 hPa 0 mm - 107 W/m² -
1788378949 32.78° C 70% 1017.6 hPa 0 mm - 124 W/m² -
1788378648 32.78° C 69% 1017.6 hPa 0 mm - 223 W/m² -
1788378347 33.33° C 69% 1017.6 hPa 0 mm - 321 W/m² -
1788378043 33.89° C 67% 1017.5 hPa 0 mm - 843 W/m² -
1788377739 34.44° C 64% 1017.5 hPa 0 mm - 750 W/m² -
1788377438 35.56° C 62% 1017.8 hPa 0 mm - 934 W/m² -
1788377137 33.89° C 66% 1017.8 hPa 0 mm - 920 W/m² -
1788376836 33.89° C 67% 1017.5 hPa 0 mm - 807 W/m² -
1788376531 33.89° C 67% 1017.7 hPa 0 mm - 594 W/m² -
1788376226 33.33° C 69% 1018.1 hPa 0 mm - 814 W/m² -

* Rain latest hour (hover to see other rain measurements)
** Current wind speed in m/s (hover to see current wind gust speed)